Location: Cerro Alto Campground
(35.4250°N, 120.7383°W)
Time: 17:51:30
(UTC-08:00)

Daily predictions for brighter satellites

Satellite Brightness Start Highest point End
(mag) Time Altitude Azimuth Time Altitude Azimuth Time Altitude Azimuth
Cosmos 2227 Rocket 4.5 18:16:02 10° WSW 18:20:36 25° WNW 18:25:13 10° N
Cosmos 1782 Rocket 4.1 18:16:59 10° SSE 18:21:05 38° E 18:25:10 10° NNE
Gbstr 26 Del rocket 2.7 18:17:39 10° SW 18:21:25 78° NW 18:25:12 10° NE
Sakura Rocket 4.3 18:17:21 10° WSW 18:21:40 40° S 18:27:28 10° ESE
USA 215 4.2 18:17:11 10° ENE 18:22:40 28° SE 18:28:06 10° S
FREGAT/IRIS 4.1 18:22:10 10° ESE 18:24:15 18° ENE 18:26:22 10° NNE
Cosmos 2237 Rocket 4.2 18:19:44 10° NW 18:24:46 34° WSW 18:29:47 10° SSW
Okean 3 3.4 18:21:24 10° N 18:25:36 87° E 18:29:47 10° S
Tiangong 2 3.5 18:24:27 10° W 18:27:02 22° SW 18:29:35 10° SSE
H-2A R/B 3.2 18:25:29 10° SE 18:29:08 40° ENE 18:32:48 10° N
Envisat 4.4 18:27:14 10° ESE 18:30:36 18° ENE 18:33:58 10° NNE
SL-16 R/B 2.4 18:26:27 10° NNW 18:32:08 81° WSW 18:37:46 10° SSE
COSMO-SKYMED 1 3.8 18:30:45 10° N 18:34:54 45° WNW 18:39:02 10° SW
Cosmos 494 Rocket 4.4 18:30:12 10° S 18:35:01 39° ESE 18:39:50 10° NNE
OAO 2 Rocket 3.3 18:34:13 10° W 18:39:14 87° S 18:43:27 14° E
Sich 1 Rocket 3.6 18:36:37 10° S 18:41:07 87° W 18:45:35 10° N
FALCON 9 R/B 3.9 18:36:01 10° W 18:42:23 83° S 19:04:53 14° ESE
CENTAUR R/B 3.8 18:39:15 10° WSW 18:44:47 39° NW 18:51:04 10° NNE
Cosmos 921 Rocket 3.0 18:41:12 10° NNW 18:45:42 76° ENE 18:50:07 10° SSE
CZ-4C R/B 4.0 18:40:29 10° N 18:46:11 24° NE 18:50:37 15° E
Meteor 1-4 Rocket 2.9 18:44:17 10° SSE 18:47:34 39° E 18:50:55 10° NNE
SJ-6B 3.6 18:45:02 10° SE 18:48:17 27° ENE 18:51:35 10° NNE
Cosmos 44 Rocket 4.3 18:45:03 10° NW 18:49:58 51° WSW 18:54:57 10° S
Okean 2 Rocket 3.2 18:46:18 10° SSE 18:50:32 50° E 18:54:49 10° NNE
Cosmos 1603 4.0 18:45:50 10° N 18:51:14 45° ENE 18:56:34 10° SE
Tsikada Rocket 4.0 18:47:30 10° S 18:53:51 69° E 19:00:13 10° NNE
CZ-2D R/B 4.1 18:52:27 10° SE 18:55:50 29° ENE 18:59:14 10° NNE
USA 32 4.1 18:50:54 10° S 18:56:07 82° W 19:01:23 10° N
COSMOS 2455 2.8 18:50:54 10° SSW 18:56:49 65° ESE 19:02:48 10° NNE
Cosmos 2263 Rocket 2.5 18:52:08 10° S 18:57:20 42° ESE 19:02:35 10° NE
Thor Agena Rocket 3.8 18:52:44 10° NNE 18:57:34 44° E 19:02:20 10° S
ALOS 4.1 18:55:18 10° SSW 18:59:32 35° W 19:03:49 10° NNW
Cosmos 2151 Rocket 4.2 18:56:29 10° SSE 19:00:28 32° E 19:04:27 10° NNE
Iridium 4 Rocket 3.4 18:56:33 10° N 19:01:07 70° W 19:05:21 10° S
Cosmos 1602 3.8 18:57:25 10° S 19:01:19 80° W 19:05:13 10° N
Okean 1 4.0 19:03:37 10° NNW 19:07:31 56° W 19:11:24 10° S
Meteor 1-13 Rocket 4.1 19:06:03 10° N 19:11:30 61° E 19:16:57 10° SSE
ATLAS CENTAUR R/B 2.7 19:12:04 10° N 19:15:25 25° NE 19:15:25 25° NE
Cosmos 1331 Rocket 4.0 19:12:31 10° N 19:17:47 61° ENE 19:22:32 13° SSE
BREEZE-M DEB (TANK) 2.8 19:19:48 10° NNW 19:21:57 34° NNE 19:21:57 34° NNE
Cosmos 2346 Rocket 4.4 19:16:56 10° S 19:23:09 90° NE 19:29:20 10° N
Geosat 4.4 19:24:05 36° E 19:24:49 38° ESE 19:29:28 10° S
CZ-3C R/B 3.7 19:23:08 10° SSW 19:26:55 23° SSE 19:29:40 20° SE
GPS 2-05 Rocket1 2.5 19:25:12 10° W 19:28:14 79° WSW 19:28:14 79° WSW
Cosmos 1975 Rocket 4.1 19:25:53 10° NNW 19:30:12 49° W 19:34:30 10° SSW
Cosmos 397 4.5 19:26:27 10° SSW 19:30:27 63° ESE 19:31:46 42° NE
Resurs 1-3 4.5 19:31:42 32° NE 19:31:42 32° NE 19:34:38 10° N
ARGOS Delta rocket 3.7 19:26:57 10° N 19:31:40 81° W 19:36:08 10° SSW
Meteor 1-5 Rocket 4.2 19:28:09 10° S 19:33:59 75° E 19:39:58 10° NNE
Meteor 2-4 Rocket 3.6 19:30:09 10° N 19:35:54 84° E 19:41:27 10° S
Cosmos 1536 2.8 19:32:35 10° S 19:36:37 86° WNW 19:40:42 10° N
BREEZE-M R/B 4.2 19:34:55 10° NW 19:38:09 72° NE 19:41:53 32° ESE
Lacrosse 5 rocket 1.3 19:35:36 10° SW 19:38:40 58° SSW 19:38:40 58° SSW
Cosmos 2251 Rocket 3.5 19:34:14 10° SSW 19:39:28 83° WNW 19:44:43 10° NNE
Cosmos 1184 Rocket 3.4 19:36:29 10° NNW 19:39:04 50° NNW 19:39:04 50° NNW
SeaSat 1 2.6 19:41:29 51° ENE 19:41:31 51° ENE 19:46:17 10° NNW
CZ-3 Stage 3 3.4 19:42:28 10° WSW 19:44:45 21° SSW 19:44:45 21° SSW
ERS-2 4.3 19:43:16 10° SSW 19:46:26 27° W 19:49:36 10° NW
Cosmos 1302 Rocket 3.8 19:45:00 10° NNW 19:50:09 67° ENE 19:50:09 67° ENE
Resurs 01 Rocket 2.4 19:53:52 41° N 19:53:52 41° N 19:56:50 10° N
Cosmos 1634 Rocket 3.9 19:46:36 10° N 19:52:47 89° W 19:58:59 10° S
Cosmos 1943 3.1 19:48:51 10° NNW 19:54:32 87° ENE 19:55:59 53° SSE
Cosmos 1536 Rocket 4.2 19:56:25 10° N 19:59:36 47° NNW 19:59:36 47° NNW
Cosmos 2142 Rocket 4.4 19:58:31 10° N 20:04:51 84° W 20:09:11 21° S
USA 215 3.4 20:02:13 28° NNE 20:05:54 68° NW 20:12:22 10° WSW
Envisat 3.9 20:04:21 10° S 20:09:12 46° W 20:14:06 10° NNW
OAO 2 Rocket 4.4 20:19:03 10° W 20:22:25 40° WSW 20:22:25 40° WSW
CZ-4C R/B 2.9 20:28:01 10° NNW 20:35:29 82° WSW 20:35:53 79° SSW
USA 267 4.5 20:38:35 29° N 20:38:35 29° N 20:42:42 10° NNW
Cosmos 2263 Rocket 4.3 20:37:01 10° WSW 20:41:23 23° WNW 20:45:49 10° N
ATLAS CENTAUR R/B 4.3 20:50:47 10° NW 20:51:44 15° WNW 20:51:44 15° WNW
